Flag for Antigua and Barbuda Weather past 2 weeks in Saint John's, Antigua and Barbuda

Now
81 °F

Passing clouds.


Feels Like: 85 °F
Forecast: 80 / 86 °F
Wind: 7 mph from East

Location: Vc Bird International Antigua Airport

Current Time: Aug 28, 2014 at 9:20:07 PM

Latest Report: Aug 28, 2014 at 9:00 PM


Visibility: N/A

Pressure: 30.01 "Hg

Humidity: 79%

Dew point: 73 °F

Location of Saint John'sLocation

Historic Weather in Saint John's — Graph

°F

Saint John's temperature yesterday

Maximum temperature yesterday: 88 °F (at 1:00 PM)
Minimum temperature yesterday: 77 °F (at 7:28 PM)
Average temperature yesterday: 83 °F

Past Weeks' High & Low Weather Summary

 TemperatureHumidityPressure
High88 °F (Aug 20, 11:00 AM)94% (Aug 16, 5:00 AM)30.07 "Hg (Aug 16, 5:00 AM)
Low75 °F (Aug 28, 4:00 AM)59% (Aug 24, 12:00 PM)29.86 "Hg (Aug 21, 3:00 PM)
Average82 °F77%29.97 "Hg
* Reported Aug 13 8:00 PM — Aug 28 8:00 PM, Saint John's, Weather by CustomWeather, © 2014

Note: Actual official high and low records may vary slightly from our data, if they occured in-between our weather recording intervals... More about our weather records

Advertising

Saint John's weather history for previous 24 hours

 ConditionsComfort  
Time TempWeatherWind HumidityBarometerVisibility
8:00 PM
Aug 28
81 °FPassing clouds.7 mph79%29.98 "HgN/A
7:00 PM81 °FPassing clouds.5 mph79%29.98 "HgN/A
6:00 PM82 °FScattered clouds.6 mph74%29.98 "HgN/A
5:00 PM82 °FScattered clouds.8 mph74%29.95 "HgN/A
4:00 PM82 °FScattered clouds.9 mph74%29.95 "HgN/A
3:00 PM84 °FScattered clouds.9 mph70%29.95 "HgN/A
2:00 PM84 °FPartly sunny.8 mph70%29.98 "HgN/A
1:00 PM84 °FPartly sunny.7 mph66%29.98 "HgN/A
12:00 PM84 °FScattered clouds.8 mph70%30.01 "HgN/A
11:00 AM84 °FScattered clouds.9 mph70%30.01 "HgN/A
10:00 AM82 °FScattered clouds.7 mph70%30.01 "HgN/A
9:00 AM79 °FScattered clouds.5 mph84%30.01 "HgN/A
8:00 AM75 °FBroken clouds.7 mph94%30.01 "HgN/A
7:00 AM75 °FSprinkles. Broken clouds.6 mph89%30.01 "HgN/A
6:00 AM75 °FRain showers. Partly sunny.9 mph94%29.98 "Hg4 mi
5:00 AM75 °FPassing clouds.3 mph89%29.98 "HgN/A
4:00 AM75 °FPassing clouds.6 mph94%29.98 "HgN/A
3:00 AM81 °FPassing clouds.10 mph79%29.95 "HgN/A
2:00 AM81 °FPassing clouds.10 mph79%29.98 "HgN/A
1:00 AM81 °FPassing clouds.13 mph79%29.98 "HgN/A
12:00 AM81 °FPassing clouds.14 mph79%30.01 "HgN/A
11:00 PM
Aug 27
81 °FPassing clouds.14 mph79%30.01 "HgN/A
10:00 PM79 °FPassing clouds.13 mph84%30.01 "HgN/A
9:00 PM79 °FPassing clouds.9 mph89%30.01 "HgN/A
Weather by CustomWeather, © 2014

See weather overviewHow to use our weather pages